Location: Niles Junction
(37.5763°N, 121.9714°W)
Time: 12:42:33
(UTC+00:00)

Cosmos 1606 Rocket - Pass Details

Date: 29 October 2020
Orbit: 603 x 631 km, 82.5° (Epoch: 01 December)

Event Time Altitude Azimuth Distance (km) Brightness Sun altitude
Rises 13:13:45 0° 343° (NNW) 2,930 6.8 -15.7°
Reaches altitude 10° 13:16:07 10° 335° (NNW) 2,019 5.9 -15.3°
Maximum altitude 13:20:14 37° 269° (W) 989 4.1 -14.5°
Drops below altitude 10° 13:24:19 10° 202° (SSW) 2,002 6.0 -13.7°
Sets 13:26:39 0° 194° (SSW) 2,902 6.9 -13.2°
